BREEZE-M DEB (TANK), 37871

Orbit data source: Space-Track

BREEZE-M DEB (TANK), 37871 is space debris in HEO originally from a launch on Fri, 04 Nov 2011 UTC launched from the Tyuratam Missile And Space Complex (TTMTR). Debris objects in space refer to the collection of defunct objects orbiting the Earth. Examples of debris include non-operational satellites, rocket bodies, and fragments generated from explosions, collisions, or faulty payload assembly.

Loading next visibility...
Identifier
37871, 2011-064E
Orbit
HEO
Country
Flag of CISCIS
Related business
Manufacturer
Khrunichev
Mission
Spacecraft
Bus & Motor
BRIZ TANK, Unknown motor
Mass
~1,000 kg wet, 1,000 kg dry
Launch date (UTC)
2011-11-04 (15 years ago)
Launch vehicle
Unknown
Launch site
Tyuratam Missile And Space Complex (TTMTR)
Object type
Payload
Rocket body
Debris
Shape & HBR
Torus, 3.0 m
Radar Cross Section
8.218 m², Large (>1 m²)

Expand to show TLE details & history
Last TLE update: 14 hours ago

TLE from 14 hours ago
0 BREEZE-M DEB (TANK)
1 37871U 11064E   26255.80942230  .00001459  00000-0  61034-3 0  9992
2 37871  52.5197  94.6509 5705237 164.7920 224.4562  4.43428314234915
Epoch: 2026-09-12T19:25Z
TLE epoch observation values (Epoch: 2026-09-12T19:25:34.086Z)
Latitude
-0.00003°
Longitude
171.45345°
Altitude
17,098.343 km
Speed
2.914 km/s
True Right ascension
06h 18m 38s
True Declination
0° 00' 00"
Sunlit
Object was in daylight at epoch
Visualization orbit readout
Latitude
Unknown
Longitude
Unknown
Altitude
Unknown
Speed
Unknown
Apparent Right ascension
Unknown
Apparent Declination
Unknown
Sunlit
N/A
Visualization observer readout
Local Sidereal Time
02:05:27
Azimuth
Unknown
Elevation
Unknown
Doppler factor
Unknown
Orbital elements
Apogee altitude
18,201.311 km
Perigee altitude
343.373 km
Semi-major axis
15,650.479 km
Eccentricity
0.57052
Inclination
52.5197°
RAAN
94.6509°
Arg. of periapsis
164.792°
True anomaly
195.26092°
Mean anomaly
224.4562°
Eccentric anomaly
208.7389°
Mean motion
1.10854 °/min
Orbital period
324.75 mins
BSTAR
0.00061034
Loading maneuver chart data...
Computing Atmospheric mass density...
Loading historical data...
Loading historical data...
Loading historical data...
Loading historical data...
Loading historical data...
Loading historical data...
Loading historical data...

Documentation

Showing up to 5 results
|